When you browse on this site, cookies collect data to enhance your experience and personalize the content and advertising you see.
Visit our Privacy Policy to learn more. By continuing to use the site, you agree to this use of cookies and data.
  • In Romania
  • List of Countries
  • For 7 days
  • Water Temperature
  • Satellite Maps
  • Weather Map
  • Weather Widgets
  • user-avatar
    Login

    Hourly Weather Kweta

    Today, 20 May, Monday

    Time Temperature Precipitation Wind Pressure Humidity
    00:00 +21°C° 0 mm 2 mps 619 mmHg 43%
    01:00 +22°C° 0 mm 1 mps 618 mmHg 46%
    02:00 +21°C° 0 mm 1 mps 618 mmHg 46%
    03:00 +21°C° 0 mm 1 mps 618 mmHg 46%
    04:00 +20°C° 0 mm 1 mps 618 mmHg 45%
    05:00 +21°C° 0 mm 1 mps 618 mmHg 41%
    06:00 +22°C° 0 mm 1 mps 619 mmHg 38%
    07:00 +23°C° 0 mm 1 mps 620 mmHg 35%
    08:00 +24°C° 0 mm 1 mps 620 mmHg 32%
    09:00 +26°C° 0 mm 1 mps 620 mmHg 29%
    10:00 +25°C° 0 mm 0 mps 621 mmHg 25%
    11:00 +27°C° 0 mm 1 mps 621 mmHg 25%
    12:00 +27°C° 0 mm 1 mps 620 mmHg 24%
    13:00 +28°C° 0 mm 1 mps 620 mmHg 23%
    14:00 +28°C° 0.2 mm 1 mps 620 mmHg 24%
    15:00 +28°C° 0.2 mm 2 mps 620 mmHg 25%
    16:00 +28°C° 0.2 mm 2 mps 619 mmHg 26%
    17:00 +27°C° 0.6 mm 2 mps 619 mmHg 29%
    18:00 +26°C° 0.6 mm 1 mps 619 mmHg 32%
    19:00 +26°C° 0.6 mm 1 mps 619 mmHg 34%
    20:00 +25°C° 0.3 mm 1 mps 619 mmHg 36%
    21:00 +25°C° 0.3 mm 1 mps 619 mmHg 38%
    22:00 +24°C° 0.3 mm 1 mps 619 mmHg 40%
    23:00 +24°C° 0.1 mm 1 mps 619 mmHg 42%

    Tomorrow, 21 May, Tuesday

    Time Temperature Precipitation Wind Pressure Humidity
    00:00 +23°C° 0.1 mm 2 mps 618 mmHg 43%
    01:00 +23°C° 0.1 mm 2 mps 618 mmHg 45%
    02:00 +22°C° 0.2 mm 1 mps 618 mmHg 46%
    03:00 +22°C° 0.2 mm 1 mps 618 mmHg 47%
    04:00 +21°C° 0.2 mm 1 mps 617 mmHg 49%
    05:00 +22°C° 0.1 mm 1 mps 618 mmHg 44%
    06:00 +23°C° 0.1 mm 1 mps 619 mmHg 39%
    07:00 +24°C° 0.1 mm 1 mps 619 mmHg 34%
    08:00 +25°C° 0.1 mm 1 mps 620 mmHg 33%
    09:00 +26°C° 0.1 mm 1 mps 620 mmHg 32%
    10:00 +26°C° 0.1 mm 1 mps 620 mmHg 30%
    11:00 +26°C° 0.6 mm 2 mps 620 mmHg 33%
    12:00 +26°C° 0.6 mm 3 mps 620 mmHg 35%
    13:00 +25°C° 0.6 mm 3 mps 619 mmHg 37%
    14:00 +24°C° 1.6 mm 3 mps 619 mmHg 43%
    15:00 +22°C° 1.6 mm 3 mps 618 mmHg 48%
    16:00 +21°C° 1.6 mm 3 mps 618 mmHg 53%
    17:00 +21°C° 0.1 mm 3 mps 618 mmHg 51%
    18:00 +21°C° 0.1 mm 2 mps 618 mmHg 50%
    19:00 +23°C° 0.1 mm 2 mps 618 mmHg 48%
    20:00 +23°C° 0 mm 2 mps 618 mmHg 48%
    21:00 +23°C° 0 mm 1 mps 618 mmHg 48%
    22:00 +23°C° 0 mm 1 mps 618 mmHg 48%
    23:00 +22°C° 0.2 mm 1 mps 618 mmHg 50%

    Day after tomorrow, 22 May, Wednesday

    Time Temperature Precipitation Wind Pressure Humidity
    00:00 +21°C° 0.2 mm 1 mps 617 mmHg 52%
    01:00 +21°C° 0.2 mm 1 mps 617 mmHg 54%
    02:00 +21°C° 0.2 mm 1 mps 617 mmHg 54%
    03:00 +21°C° 0.2 mm 1 mps 616 mmHg 54%
    04:00 +20°C° 0.2 mm 2 mps 616 mmHg 54%
    05:00 +21°C° 0 mm 1 mps 617 mmHg 53%
    06:00 +21°C° 0 mm 1 mps 617 mmHg 51%
    07:00 +21°C° 0 mm 1 mps 617 mmHg 50%
    08:00 +23°C° 0 mm 1 mps 617 mmHg 44%
    09:00 +24°C° 0 mm 1 mps 618 mmHg 39%
    10:00 +25°C° 0 mm 1 mps 618 mmHg 33%
    11:00 +27°C° 0 mm 2 mps 618 mmHg 30%
    12:00 +28°C° 0 mm 3 mps 618 mmHg 28%
    13:00 +29°C° 0 mm 3 mps 618 mmHg 25%
    14:00 +28°C° 0.3 mm 3 mps 617 mmHg 26%
    15:00 +28°C° 0.3 mm 4 mps 617 mmHg 27%
    16:00 +28°C° 0.3 mm 4 mps 616 mmHg 28%
    17:00 +27°C° 0.6 mm 4 mps 616 mmHg 31%
    18:00 +27°C° 0.6 mm 4 mps 616 mmHg 34%
    19:00 +26°C° 0.6 mm 5 mps 616 mmHg 37%
    20:00 +25°C° 1.4 mm 4 mps 616 mmHg 43%
    21:00 +24°C° 1.4 mm 3 mps 616 mmHg 50%
    22:00 +22°C° 1.4 mm 1 mps 616 mmHg 56%
    23:00 +22°C° 0.6 mm 1 mps 615 mmHg 56%

    23 May, Thursday

    Time Temperature Precipitation Wind Pressure Humidity
    00:00 +22°C° 0.6 mm 1 mps 615 mmHg 57%
    01:00 +22°C° 0.6 mm 1 mps 615 mmHg 57%
    02:00 +21°C° 0.1 mm 1 mps 615 mmHg 58%
    03:00 +21°C° 0.1 mm 1 mps 615 mmHg 59%
    04:00 +21°C° 0.1 mm 1 mps 614 mmHg 60%
    05:00 +20°C° 0 mm 2 mps 615 mmHg 56%
    06:00 +21°C° 0 mm 3 mps 616 mmHg 52%
    07:00 +21°C° 0 mm 4 mps 616 mmHg 47%
    08:00 +22°C° 0 mm 4 mps 617 mmHg 43%
    09:00 +23°C° 0 mm 4 mps 617 mmHg 38%
    10:00 +25°C° 0 mm 5 mps 618 mmHg 34%
    11:00 +26°C° 0 mm 6 mps 618 mmHg 31%
    12:00 +27°C° 0 mm 6 mps 618 mmHg 27%
    13:00 +28°C° 0 mm 7 mps 617 mmHg 24%
    14:00 +28°C° 0 mm 8 mps 617 mmHg 23%
    15:00 +27°C° 0 mm 9 mps 617 mmHg 21%
    16:00 +27°C° 0 mm 9 mps 617 mmHg 20%
    17:00 +26°C° 0 mm 8 mps 617 mmHg 21%
    18:00 +24°C° 0 mm 7 mps 617 mmHg 22%
    19:00 +23°C° 0 mm 6 mps 617 mmHg 24%
    20:00 +23°C° 0 mm 6 mps 617 mmHg 25%
    21:00 +22°C° 0 mm 5 mps 617 mmHg 27%
    22:00 +22°C° 0 mm 4 mps 617 mmHg 29%
    23:00 +21°C° 0 mm 4 mps 617 mmHg 30%

    24 May, Friday

    Time Temperature Precipitation Wind Pressure Humidity
    00:00 +20°C° 0 mm 3 mps 616 mmHg 32%
    01:00 +20°C° 0 mm 3 mps 616 mmHg 33%
    02:00 +19°C° 0 mm 3 mps 616 mmHg 34%
    03:00 +19°C° 0 mm 3 mps 616 mmHg 35%
    04:00 +18°C° 0 mm 3 mps 616 mmHg 36%
    05:00 +19°C° 0 mm 4 mps 616 mmHg 34%
    06:00 +20°C° 0 mm 5 mps 617 mmHg 33%
    07:00 +20°C° 0 mm 6 mps 618 mmHg 31%
    08:00 +22°C° 0 mm 7 mps 618 mmHg 28%
    09:00 +23°C° 0 mm 7 mps 619 mmHg 25%
    10:00 +24°C° 0 mm 7 mps 619 mmHg 22%
    11:00 +26°C° 0 mm 8 mps 619 mmHg 21%
    12:00 +27°C° 0 mm 8 mps 619 mmHg 19%
    13:00 +28°C° 0 mm 8 mps 619 mmHg 17%
    14:00 +28°C° 0 mm 9 mps 619 mmHg 17%
    15:00 +28°C° 0 mm 9 mps 618 mmHg 17%
    16:00 +28°C° 0 mm 9 mps 618 mmHg 16%
    17:00 +27°C° 0 mm 8 mps 618 mmHg 17%
    18:00 +26°C° 0 mm 7 mps 618 mmHg 19%
    19:00 +24°C° 0 mm 6 mps 618 mmHg 20%
    20:00 +23°C° 0 mm 5 mps 618 mmHg 21%
    21:00 +23°C° 0 mm 4 mps 618 mmHg 22%
    22:00 +22°C° 0 mm 4 mps 618 mmHg 24%
    23:00 +21°C° 0 mm 3 mps 618 mmHg 25%

    25 May, Saturday

    Time Temperature Precipitation Wind Pressure Humidity
    00:00 +21°C° 0 mm 3 mps 617 mmHg 26%
    01:00 +20°C° 0 mm 3 mps 617 mmHg 27%
    02:00 +19°C° 0 mm 2 mps 616 mmHg 28%
    03:00 +19°C° 0 mm 2 mps 616 mmHg 29%
    04:00 +18°C° 0 mm 2 mps 616 mmHg 30%
    05:00 +19°C° 0 mm 2 mps 617 mmHg 28%
    06:00 +21°C° 0 mm 2 mps 618 mmHg 26%
    07:00 +23°C° 0 mm 2 mps 618 mmHg 24%
    08:00 +24°C° 0 mm 2 mps 619 mmHg 21%
    09:00 +26°C° 0 mm 3 mps 619 mmHg 18%
    10:00 +27°C° 0 mm 4 mps 620 mmHg 15%
    11:00 +28°C° 0 mm 5 mps 620 mmHg 14%
    12:00 +29°C° 0 mm 7 mps 619 mmHg 14%
    13:00 +32°C° 0 mm 9 mps 619 mmHg 13%
    14:00 +32°C° 0 mm 9 mps 619 mmHg 13%
    15:00 +32°C° 0 mm 10 mps 619 mmHg 13%
    16:00 +31°C° 0 mm 11 mps 618 mmHg 13%
    17:00 +29°C° 0 mm 10 mps 618 mmHg 15%
    18:00 +28°C° 0 mm 9 mps 618 mmHg 16%
    19:00 +27°C° 0 mm 8 mps 618 mmHg 17%
    20:00 +27°C° 0 mm 7 mps 618 mmHg 19%
    21:00 +26°C° 0 mm 7 mps 618 mmHg 20%
    22:00 +24°C° 0 mm 6 mps 617 mmHg 21%
    23:00 +23°C° 0 mm 5 mps 617 mmHg 23%
    Show more